ギャラッド彗星

C/2008 P1 ( Garradd )

English version
Home page
Updated on March 5, 2011

---------------------------------------------------------------------

・ プロフィール

発見日 2008年8月13日
発見光度 16.7等
発見者 G. J. Garradd (Siding Spring Survey)

・ 写真集

・ 軌道要素

Epoch 2009 July 28.0 TT = JDT 2455040.5
T 2009 July 22.93789 TT                                 MPC
q   3.8961054            (2000.0)            P               Q
z  -0.0004534      Peri.   11.86290     +0.98145066     -0.18820194
 +/-0.000000       Node   357.67657     -0.02839088     +0.04577774
e   1.0017666      Incl.   64.30894     +0.18960108     +0.98106291
From 1238 observations 2008 Aug. 13-2011 Feb. 4, mean residual 0".5.

・ 星図

・ 光度変化

        m1 = 6.5 + 5 logΔ + 11.0 log r(t + 175)

---------------------------------------------------------------------

軌道要素はM.P.E.C. 2011-D06に掲載されたものです。
星図はステラナビゲータ Ver.8 (アストロアーツ) で作成したものです。
光度グラフはComet for Windowsで作成したものです。

---------------------------------------------------------------------

Copyright(C) Seiichi Yoshida (comet@aerith.net). All rights reserved.